When you browse on this site, cookies collect data to enhance your experience and personalize the content and advertising you see.
Visit our Privacy Policy to learn more. By continuing to use the site, you agree to this use of cookies and data.
  • In Hungary
  • List of Countries
  • For 7 days
  • Water Temperature
  • Satellite Maps
  • Weather Map
  • News
  • Weather Widgets
  • user-avatar
    Login

    Hourly Weather Staroe Malinovo

    Today, 27 May, Monday

    Time Temperature Precipitation Wind Pressure Humidity
    00:00 +9°C° 0 mm 3 mps 734 mmHg 85%
    01:00 +9°C° 0 mm 3 mps 734 mmHg 86%
    02:00 +9°C° 0 mm 3 mps 734 mmHg 89%
    03:00 +9°C° 0 mm 3 mps 734 mmHg 87%
    04:00 +8°C° 0 mm 4 mps 734 mmHg 86%
    05:00 +10°C° 0 mm 4 mps 734 mmHg 84%
    06:00 +11°C° 0.1 mm 4 mps 734 mmHg 82%
    07:00 +11°C° 0.1 mm 4 mps 735 mmHg 80%
    08:00 +12°C° 0.1 mm 5 mps 735 mmHg 78%
    09:00 +13°C° 0.1 mm 5 mps 735 mmHg 72%
    10:00 +14°C° 0.1 mm 5 mps 735 mmHg 65%
    11:00 +16°C° 0.1 mm 5 mps 735 mmHg 59%
    12:00 +16°C° 0 mm 5 mps 736 mmHg 56%
    13:00 +17°C° 0 mm 5 mps 736 mmHg 53%
    14:00 +19°C° 0 mm 4 mps 736 mmHg 50%
    15:00 +19°C° 0 mm 4 mps 736 mmHg 54%
    16:00 +18°C° 0 mm 3 mps 737 mmHg 59%
    17:00 +18°C° 0 mm 3 mps 737 mmHg 63%
    18:00 +17°C° 0.1 mm 3 mps 737 mmHg 71%
    19:00 +16°C° 0.1 mm 2 mps 737 mmHg 79%
    20:00 +15°C° 0.1 mm 2 mps 737 mmHg 87%
    21:00 +15°C° 0.2 mm 2 mps 737 mmHg 90%
    22:00 +14°C° 0.2 mm 3 mps 737 mmHg 93%
    23:00 +13°C° 0.2 mm 3 mps 737 mmHg 96%

    Tomorrow, 28 May, Tuesday

    Time Temperature Precipitation Wind Pressure Humidity
    00:00 +13°C° 0 mm 3 mps 737 mmHg 96%
    01:00 +13°C° 0 mm 3 mps 738 mmHg 97%
    02:00 +13°C° 0 mm 2 mps 738 mmHg 97%
    03:00 +13°C° 0 mm 2 mps 739 mmHg 97%
    04:00 +14°C° 0 mm 2 mps 739 mmHg 96%
    05:00 +14°C° 0 mm 2 mps 739 mmHg 96%
    06:00 +15°C° 0 mm 2 mps 740 mmHg 89%
    07:00 +17°C° 0 mm 2 mps 740 mmHg 83%
    08:00 +18°C° 0 mm 2 mps 740 mmHg 76%
    09:00 +20°C° 0 mm 2 mps 741 mmHg 70%
    10:00 +22°C° 0 mm 3 mps 741 mmHg 63%
    11:00 +24°C° 0 mm 3 mps 741 mmHg 57%
    12:00 +25°C° 0 mm 3 mps 741 mmHg 54%
    13:00 +26°C° 0 mm 3 mps 741 mmHg 51%
    14:00 +27°C° 0 mm 3 mps 740 mmHg 47%
    15:00 +26°C° 0 mm 4 mps 740 mmHg 51%
    16:00 +26°C° 0 mm 4 mps 740 mmHg 55%
    17:00 +26°C° 0 mm 4 mps 740 mmHg 58%
    18:00 +24°C° 0.2 mm 3 mps 740 mmHg 67%
    19:00 +21°C° 0.2 mm 3 mps 740 mmHg 76%
    20:00 +20°C° 0.2 mm 3 mps 739 mmHg 85%
    21:00 +19°C° 0 mm 3 mps 740 mmHg 85%
    22:00 +19°C° 0 mm 4 mps 740 mmHg 84%
    23:00 +19°C° 0 mm 4 mps 740 mmHg 84%

    Day after tomorrow, 29 May, Wednesday

    Time Temperature Precipitation Wind Pressure Humidity
    00:00 +18°C° 0 mm 4 mps 740 mmHg 83%
    01:00 +18°C° 0 mm 4 mps 740 mmHg 82%
    02:00 +18°C° 0 mm 4 mps 740 mmHg 81%
    03:00 +18°C° 0 mm 4 mps 740 mmHg 82%
    04:00 +18°C° 0 mm 4 mps 740 mmHg 82%
    05:00 +19°C° 0 mm 4 mps 741 mmHg 83%
    06:00 +20°C° 0 mm 4 mps 741 mmHg 77%
    07:00 +22°C° 0 mm 5 mps 741 mmHg 70%
    08:00 +23°C° 0 mm 5 mps 741 mmHg 64%
    09:00 +25°C° 0 mm 5 mps 741 mmHg 59%
    10:00 +26°C° 0 mm 6 mps 741 mmHg 53%
    11:00 +28°C° 0 mm 6 mps 741 mmHg 48%
    12:00 +28°C° 0 mm 6 mps 741 mmHg 46%
    13:00 +28°C° 0 mm 6 mps 741 mmHg 44%
    14:00 +29°C° 0 mm 6 mps 741 mmHg 41%
    15:00 +28°C° 0 mm 6 mps 741 mmHg 43%
    16:00 +27°C° 0 mm 5 mps 740 mmHg 45%
    17:00 +27°C° 0 mm 4 mps 740 mmHg 47%
    18:00 +25°C° 0 mm 4 mps 741 mmHg 55%
    19:00 +22°C° 0 mm 3 mps 741 mmHg 63%
    20:00 +21°C° 0 mm 3 mps 741 mmHg 70%
    21:00 +20°C° 0 mm 3 mps 742 mmHg 74%
    22:00 +20°C° 0 mm 3 mps 742 mmHg 77%
    23:00 +19°C° 0 mm 3 mps 742 mmHg 81%

    30 May, Thursday

    Time Temperature Precipitation Wind Pressure Humidity
    00:00 +19°C° 0 mm 3 mps 742 mmHg 84%
    01:00 +18°C° 0 mm 3 mps 743 mmHg 87%
    02:00 +18°C° 0 mm 3 mps 743 mmHg 89%
    03:00 +18°C° 0.3 mm 2 mps 743 mmHg 91%
    04:00 +18°C° 0.3 mm 2 mps 743 mmHg 92%
    05:00 +18°C° 0.3 mm 2 mps 743 mmHg 94%
    06:00 +19°C° 0.6 mm 2 mps 744 mmHg 91%
    07:00 +20°C° 0.6 mm 2 mps 744 mmHg 89%
    08:00 +21°C° 0.6 mm 2 mps 744 mmHg 86%
    09:00 +21°C° 1 mm 3 mps 744 mmHg 84%
    10:00 +22°C° 1 mm 3 mps 744 mmHg 82%
    11:00 +22°C° 1 mm 3 mps 744 mmHg 80%
    12:00 +24°C° 0.8 mm 3 mps 744 mmHg 75%
    13:00 +25°C° 0.8 mm 2 mps 743 mmHg 70%
    14:00 +26°C° 0.8 mm 2 mps 743 mmHg 65%
    15:00 +25°C° 1.1 mm 1 mps 743 mmHg 70%
    16:00 +24°C° 1.1 mm 1 mps 743 mmHg 75%
    17:00 +22°C° 1.1 mm 0 mps 743 mmHg 80%
    18:00 +21°C° 0.6 mm 0 mps 742 mmHg 83%
    19:00 +19°C° 0.6 mm 0 mps 742 mmHg 86%
    20:00 +18°C° 0.6 mm 0 mps 742 mmHg 89%
    21:00 +17°C° 0.1 mm 0 mps 742 mmHg 91%
    22:00 +17°C° 0.1 mm 0 mps 742 mmHg 92%
    23:00 +18°C° 0.1 mm 1 mps 742 mmHg 93%

    31 May, Friday

    Time Temperature Precipitation Wind Pressure Humidity
    00:00 +18°C° 0.3 mm 1 mps 742 mmHg 95%
    01:00 +16°C° 0.3 mm 1 mps 742 mmHg 97%
    02:00 +15°C° 0.3 mm 1 mps 742 mmHg 98%
    03:00 +15°C° 0 mm 2 mps 742 mmHg 98%
    04:00 +15°C° 0 mm 2 mps 742 mmHg 97%
    05:00 +15°C° 0 mm 2 mps 743 mmHg 96%
    06:00 +15°C° 0 mm 1 mps 743 mmHg 95%
    07:00 +15°C° 0 mm 1 mps 743 mmHg 94%
    08:00 +15°C° 0 mm 1 mps 743 mmHg 93%
    09:00 +16°C° 0 mm 1 mps 743 mmHg 86%
    10:00 +17°C° 0 mm 2 mps 743 mmHg 80%
    11:00 +18°C° 0 mm 2 mps 743 mmHg 73%
    12:00 +20°C° 0 mm 2 mps 744 mmHg 65%
    13:00 +21°C° 0 mm 2 mps 744 mmHg 58%
    14:00 +24°C° 0 mm 2 mps 744 mmHg 50%
    15:00 +23°C° 0 mm 2 mps 744 mmHg 49%
    16:00 +23°C° 0 mm 2 mps 744 mmHg 48%
    17:00 +23°C° 0 mm 2 mps 744 mmHg 48%
    18:00 +20°C° 0 mm 2 mps 744 mmHg 55%
    19:00 +18°C° 0 mm 2 mps 744 mmHg 62%
    20:00 +16°C° 0 mm 1 mps 744 mmHg 69%
    21:00 +15°C° 0 mm 1 mps 744 mmHg 69%
    22:00 +14°C° 0 mm 1 mps 744 mmHg 69%
    23:00 +13°C° 0 mm 1 mps 744 mmHg 70%

    1 June, Saturday

    Time Temperature Precipitation Wind Pressure Humidity
    00:00 +13°C° 0 mm 1 mps 744 mmHg 73%
    01:00 +12°C° 0 mm 1 mps 744 mmHg 75%
    02:00 +10°C° 0 mm 2 mps 744 mmHg 78%
    03:00 +12°C° 0 mm 2 mps 744 mmHg 78%
    04:00 +12°C° 0 mm 2 mps 744 mmHg 77%
    05:00 +13°C° 0 mm 2 mps 744 mmHg 77%
    06:00 +13°C° 0.1 mm 2 mps 744 mmHg 77%
    07:00 +14°C° 0.1 mm 2 mps 744 mmHg 77%
    08:00 +14°C° 0.1 mm 2 mps 744 mmHg 77%
    09:00 +16°C° 0.1 mm 3 mps 744 mmHg 74%
    10:00 +17°C° 0.1 mm 3 mps 744 mmHg 70%
    11:00 +18°C° 0.1 mm 3 mps 744 mmHg 67%
    12:00 +18°C° 0 mm 3 mps 744 mmHg 66%
    13:00 +19°C° 0 mm 3 mps 743 mmHg 65%
    14:00 +19°C° 0 mm 3 mps 743 mmHg 64%
    15:00 +18°C° 0.8 mm 3 mps 743 mmHg 74%
    16:00 +16°C° 0.8 mm 2 mps 743 mmHg 83%
    17:00 +15°C° 0.8 mm 2 mps 742 mmHg 93%
    18:00 +14°C° 0.1 mm 2 mps 743 mmHg 93%
    19:00 +14°C° 0.1 mm 2 mps 743 mmHg 93%
    20:00 +13°C° 0.1 mm 2 mps 743 mmHg 93%
    21:00 +13°C° 0.1 mm 2 mps 743 mmHg 92%
    22:00 +12°C° 0.1 mm 2 mps 743 mmHg 91%
    23:00 +11°C° 0.1 mm 3 mps 744 mmHg 90%
    Show more